ASP401 CYYC-CEN4

Flight info

Callsign ASP401
Flight time 0h 12m
Altitude 7500
Route DCT
Aircraft C525/L-SDFGRWY/S

Departure

Time 2026-04-17 21:12
Airport Calgary International Airport (CYYC)

Arrival

Time 2026-04-17 21:24
Airport High River Airport (CEN4)
Time Latitude Longitude Altitude Speed Heading
2026-04-17 21:01 51.12978 -114.02625 3544 ft 0 kts 181°
2026-04-17 21:05 51.12966 -114.02613 3544 ft 4 kts 99°
2026-04-17 21:06 51.12978 -114.02542 3544 ft 9 kts 68°
2026-04-17 21:06 51.12986 -114.02449 3546 ft 7 kts 111°
2026-04-17 21:06 51.12927 -114.02419 3546 ft 12 kts 180°
2026-04-17 21:06 51.12818 -114.02419 3546 ft 17 kts 180°
2026-04-17 21:07 51.12677 -114.02420 3545 ft 22 kts 179°
2026-04-17 21:07 51.12517 -114.02421 3545 ft 24 kts 181°
2026-04-17 21:07 51.12346 -114.02420 3545 ft 24 kts 178°
2026-04-17 21:07 51.12175 -114.02420 3545 ft 25 kts 180°
2026-04-17 21:08 51.11987 -114.02422 3547 ft 27 kts 181°
2026-04-17 21:08 51.11797 -114.02420 3545 ft 28 kts 179°
2026-04-17 21:08 51.11611 -114.02420 3544 ft 21 kts 179°
2026-04-17 21:08 51.11470 -114.02409 3542 ft 16 kts 159°
2026-04-17 21:09 51.11434 -114.02336 3544 ft 0 kts 96°
2026-04-17 21:10 51.11432 -114.02312 3544 ft 5 kts 94°
2026-04-17 21:11 51.11431 -114.02204 3545 ft 11 kts 89°
2026-04-17 21:11 51.11478 -114.02138 3547 ft 16 kts
2026-04-17 21:11 51.11844 -114.02135 3547 ft 88 kts
2026-04-17 21:11 51.12625 -114.02135 3741 ft 122 kts
2026-04-17 21:12 51.13476 -114.02128 4361 ft 123 kts 360°
2026-04-17 21:12 51.14362 -114.02302 4774 ft 140 kts 336°
2026-04-17 21:12 51.14988 -114.03483 5230 ft 154 kts 285°
2026-04-17 21:12 51.14720 -114.05129 5804 ft 165 kts 232°
2026-04-17 21:13 51.13729 -114.05969 6459 ft 167 kts 194°
2026-04-17 21:13 51.12548 -114.06164 7022 ft 172 kts 186°
2026-04-17 21:13 51.11353 -114.06206 7456 ft 180 kts 183°
2026-04-17 21:13 51.10025 -114.06235 7512 ft 203 kts 182°
2026-04-17 21:14 51.08538 -114.06280 7503 ft 227 kts 183°
2026-04-17 21:14 51.06879 -114.06338 7495 ft 247 kts 184°
2026-04-17 21:14 51.05115 -114.06403 7488 ft 262 kts 183°
2026-04-17 21:14 51.03255 -114.06486 7487 ft 274 kts 183°
2026-04-17 21:15 51.01299 -114.06577 7480 ft 284 kts 184°
2026-04-17 21:15 50.99324 -114.06672 7481 ft 290 kts 183°
2026-04-17 21:15 50.97269 -114.06769 7477 ft 296 kts 183°
2026-04-17 21:15 50.95194 -114.06871 7469 ft 300 kts 183°
2026-04-17 21:16 50.93116 -114.06972 7468 ft 302 kts 182°
2026-04-17 21:16 50.91033 -114.06459 7459 ft 306 kts 159°
2026-04-17 21:16 50.89123 -114.04993 7465 ft 307 kts 154°
2026-04-17 21:16 50.87210 -114.03543 7464 ft 308 kts 153°
2026-04-17 21:17 50.85287 -114.02037 7453 ft 310 kts 153°
2026-04-17 21:17 50.83350 -114.00512 7459 ft 310 kts 153°
2026-04-17 21:17 50.81432 -113.99000 7456 ft 310 kts 153°
2026-04-17 21:17 50.79504 -113.97478 7456 ft 310 kts 153°
2026-04-17 21:18 50.77583 -113.95954 7453 ft 311 kts 153°
2026-04-17 21:18 50.75650 -113.94420 7450 ft 311 kts 153°
2026-04-17 21:18 50.73705 -113.92878 7452 ft 311 kts 153°
2026-04-17 21:18 50.71791 -113.91358 7453 ft 311 kts 153°
2026-04-17 21:19 50.69848 -113.89809 7457 ft 311 kts 152°
2026-04-17 21:19 50.67897 -113.88403 7440 ft 310 kts 161°
2026-04-17 21:19 50.65818 -113.87666 6919 ft 306 kts 172°
2026-04-17 21:19 50.63756 -113.87565 6178 ft 293 kts 184°
2026-04-17 21:20 50.61806 -113.87862 5791 ft 270 kts 184°
2026-04-17 21:20 50.60011 -113.87745 5550 ft 249 kts 167°
2026-04-17 21:20 50.58472 -113.86816 5386 ft 230 kts 152°
2026-04-17 21:20 50.57112 -113.85587 5120 ft 219 kts 145°
2026-04-17 21:21 50.55915 -113.84251 4973 ft 203 kts 141°
2026-04-17 21:21 50.54888 -113.83014 4913 ft 169 kts 140°
2026-04-17 21:21 50.54009 -113.81976 4701 ft 149 kts 140°
2026-04-17 21:21 50.53220 -113.81001 4516 ft 137 kts 138°
2026-04-17 21:22 50.52506 -113.80106 4475 ft 127 kts 138°
2026-04-17 21:22 50.51694 -113.79565 4307 ft 134 kts 181°
2026-04-17 21:22 50.50945 -113.80257 4252 ft 123 kts 242°
2026-04-17 21:22 50.50744 -113.81482 4200 ft 111 kts 265°
2026-04-17 21:23 50.50873 -113.82616 4079 ft 105 kts 313°
2026-04-17 21:23 50.51487 -113.83225 3874 ft 105 kts 341°
2026-04-17 21:23 50.52161 -113.83610 3692 ft 101 kts 343°
2026-04-17 21:23 50.52818 -113.83984 3473 ft 99 kts 342°
2026-04-17 21:24 50.53372 -113.84300 3421 ft 47 kts 340°
2026-04-17 21:24 50.53481 -113.84360 3418 ft 3 kts 285°
2026-04-17 21:24 50.53445 -113.84350 3419 ft 6 kts 158°
2026-04-17 21:24 50.53409 -113.84392 3419 ft 10 kts 256°
2026-04-17 21:25 50.53395 -113.84514 3419 ft 13 kts 260°
2026-04-17 21:25 50.53374 -113.84677 3418 ft 15 kts 237°
2026-04-17 21:25 50.53317 -113.84768 3421 ft 4 kts 259°
2026-04-17 21:25 50.53317 -113.84769 3421 ft 0 kts 259°